Squamish, British Columbia

9:10 AM PDT on April 21, 2018 (GMT -0700)
Squamish

Weather History for CWSK - October, 2013

Change the Weather History Date:

Wednesday, October 9, 2013

  Actual Average Record
Temperature  
Mean Temperature 46 °F -  
Max Temperature 57 °F - - ()
Min Temperature 35 °F - - ()
Degree Days  
Heating Degree Days 19    
Moisture  
Dew Point 40 °F    
Average Humidity 86    
Maximum Humidity 100    
Minimum Humidity 47    
Precipitation  
Precipitation 0.00 in - - ()
Sea Level Pressure  
Sea Level Pressure 30.06 in    
Wind  
Wind Speed 2 mph ()    
Max Wind Speed 6 mph    
Max Gust Speed -    
T = Trace of Precipitation, MM = Missing Value Source: Averaged Metar Reports

Daily Weather History Graph

Daily Weather History Graph

Search for Another Location

Airport or City:

Astronomy

Oct. 09, 2013 Rise Set
Actual Time 7:25 AM PDT 6:33 PM PDT
Civil Twilight 6:53 AM PDT 7:05 PM PDT
Nautical Twilight 6:16 AM PDT 7:42 PM PDT
Astronomical Twilight 5:38 AM PDT 8:20 PM PDT
Moon 12:49 PM PDT (10/9) 9:50 PM PDT (10/9)
Length of Visible Light 12h 12m
Length of Day
11h 07m
Waxing Crescent, 26% of the Moon is Illuminated
Oct 9
Waxing Crescent
Oct 11
First Quarter
Oct 18
Full
Oct 26
Last Quarter
Nov 3
New

Hourly Weather History & Observations

Time (PDT) Temp. Dew Point Humidity Pressure Visibility Wind Dir Wind Speed Gust Speed Precip Events Conditions
12:00 AM 39.2 °F 38.3 °F 97% 30.12 in - NE 1.2 mph - N/A   Unknown
1:00 AM 38.3 °F 37.6 °F 97% 30.14 in - NNE 2.3 mph - N/A   Unknown
2:00 AM 37 °F 37 °F 98% 30.15 in - NNE 1.2 mph - -  
2:00 AM 37.2 °F 36.7 °F 98% 30.15 in - NNE 1.2 mph - N/A   Unknown
3:00 AM 35.6 °F 35.1 °F 98% 30.16 in - NNW 1.2 mph - N/A   Unknown
4:00 AM 36.7 °F 36.1 °F 98% 30.16 in - NE 2.3 mph - N/A   Unknown
5:00 AM 36 °F 35 °F 96% 30.15 in - NNE 1.2 mph - -  
5:00 AM 35.8 °F 35.2 °F 98% 30.15 in - NNE 1.2 mph - N/A   Unknown
6:00 AM 36.5 °F 36.0 °F 98% 30.16 in - NNE 1.2 mph - N/A   Unknown
7:00 AM 37.2 °F 36.7 °F 98% 30.14 in - North 2.3 mph - N/A   Unknown
8:00 AM 38 °F 38 °F 100% 30.14 in - Calm Calm - -  
8:00 AM 38.5 °F 37.9 °F 98% 30.14 in - Calm Calm - N/A   Unknown
9:00 AM 38.8 °F 38.1 °F 97% 30.13 in - North 1.2 mph - N/A   Unknown
10:00 AM 43.5 °F 41.5 °F 93% 30.12 in - WNW 1.2 mph - N/A   Unknown
11:00 AM 47 °F 42 °F 76% 30.11 in - NW 1.2 mph - -  
11:00 AM 46.6 °F 41.7 °F 83% 30.11 in - NW 1.2 mph - N/A   Unknown
12:00 PM 49.6 °F 41.5 °F 74% 30.08 in - ESE 1.2 mph - N/A   Unknown
1:00 PM 53.2 °F 39.4 °F 59% 30.05 in - South 3.5 mph - N/A   Unknown
2:00 PM 55 °F 41 °F 47% 30.03 in - South 5.8 mph - -  
2:00 PM 54.7 °F 40.6 °F 59% 30.03 in - South 5.8 mph - N/A   Unknown
3:00 PM 54.9 °F 42.1 °F 62% 30.00 in - SE 4.6 mph - N/A   Unknown
4:00 PM 54.1 °F 42.1 °F 64% 29.99 in - SE 3.5 mph - N/A   Unknown
5:00 PM 53 °F 44 °F 64% 29.99 in - SE 2.3 mph - -  
5:00 PM 53.1 °F 44.2 °F 72% 29.99 in - SE 2.3 mph - N/A   Unknown
6:00 PM 50.7 °F 45.3 °F 82% 29.97 in - NE 1.2 mph - N/A   Unknown
7:00 PM 48.9 °F 45.5 °F 88% 29.96 in - Calm Calm - N/A   Unknown
8:00 PM 48 °F 45 °F 87% 29.96 in - NE 1.2 mph - -  
8:00 PM 47.8 °F 45.3 °F 91% 29.96 in - NE 1.2 mph - N/A   Unknown
9:00 PM 46.8 °F 44.4 °F 92% 29.96 in - ENE 1.2 mph - N/A   Unknown
10:00 PM 45.9 °F 44.1 °F 93% 29.94 in - NE 2.3 mph - N/A   Unknown
11:00 PM 46 °F 44 °F 92% 29.95 in - NE 2.3 mph - -  
11:00 PM 45.9 °F 44.4 °F 95% 29.95 in - NE 2.3 mph - N/A   Unknown